#timestamp,LO_Frequency,Hit,StdDev 
1559991615.8,286046998.5,N
1559991635.6,286046998.2,N
1559991655.5,286046998.7,N
1559991675.3,286046998.4,N
1559991695.2,286046998.2,N
1559991715.9,286046998.3,N
1559991735.7,286047001.0,N
1559991755.6,286047000.8,N
1559991775.4,286046998.6,N
1559991795.2,286047000.9,N
1559991815.1,286047002.7,N
1559991816.0,286047002.7,N
1559991835.8,286047000.2,N
1559991855.7,286047000.3,N
1559991875.5,286047000.9,N
1559991895.3,286047002.7,N
1559991915.2,286047000.6,N
1559991935.0,286047002.2,N
1559991935.9,286047002.2,N
1559991955.7,286047001.8,N
1559991975.6,286047002.7,N
1559991995.4,286047001.0,N
1559992015.3,286046998.8,N
1559992035.1,286046998.6,N
1559992055.8,286046998.2,N
1559992075.7,286047001.2,N
1559992095.5,286047001.0,N
1559992115.3,286046998.5,N
1559992135.2,286046998.6,N
1559992155.0,286047000.8,N
1559992155.9,286047000.8,N
1559992175.8,286047001.1,N
1559992195.6,286046999.0,N
1559992215.4,286046996.6,N
1559992235.3,286046999.1,N
1559992255.1,286046999.3,N
1559992275.9,286046997.0,N
1559992295.7,286046998.5,N
1559992315.5,286046999.0,N
1559992335.4,286046998.8,N
1559992355.2,286047000.4,N
1559992375.0,286047000.1,N
1559992375.9,286047000.1,N
1559992395.8,286047000.4,N
1559992415.6,286047000.7,N
1559992435.5,286047001.1,N
1559992455.3,286046998.5,N
1559992475.1,286047000.5,N
1559992495.9,286047001.2,N
1559992515.7,286046998.5,N
1559992535.5,286046998.4,N
1559992555.4,286046998.7,N
1559992575.2,286046998.6,N
1559992595.1,286046998.2,N
1559992596.0,286046998.2,N
1559992615.8,286046999.0,N
1559992635.6,286046999.5,N
1559992655.5,286046996.9,N
1559992675.3,286046998.0,N
1559992695.1,286046995.1,Y
1559992715.9,286046999.5,P
1559992735.7,286046999.6,P
1559992755.6,286046996.7,P
1559992775.4,286046997.0,N
1559992795.2,286046996.6,N
1559992815.1,286046999.6,N
1559992816.0,286046999.6,N
1559992835.8,286046997.8,N
1559992855.7,286046996.9,N
1559992875.5,286046999.2,N
1559992895.3,286046996.5,N
1559992915.2,286046999.3,N
1559992935.9,286046996.5,N
1559992955.7,286046996.9,N
1559992975.6,286046997.4,N
1559992995.4,286046997.7,N
1559993015.3,286046996.5,N
1559993035.1,286046996.8,N
1559993036.0,286046996.8,N
1559993055.8,286046996.7,N
1559993075.7,286046997.0,N
1559993095.5,286046999.6,N
1559993115.3,286046996.5,N
1559993135.2,286046998.7,N
1559993155.0,286047000.4,N
1559993155.9,286047000.4,N
1559993175.8,286046998.6,N
1559993195.6,286046999.4,N
1559993215.4,286046996.6,N
1559993235.3,286046999.5,N
1559993255.1,286046996.8,N
1559993275.8,286046999.3,N
1559993295.7,286046999.1,N
1559993315.5,286046997.0,N
1559993335.4,286046996.7,N
1559993355.2,286046996.5,N
1559993375.0,286046999.2,N
1559993375.9,286046999.2,N
1559993395.8,286046998.7,N
1559993415.6,286047001.2,N
1559993435.4,286046996.8,N
1559993455.3,286046999.3,N
1559993475.1,286046996.7,N
1559993495.9,286046999.1,N
1559993515.7,286046999.1,N
1559993535.5,286046998.0,N
1559993555.4,286046995.6,Y
1559993575.2,286046997.0,P
1559993595.0,286046997.1,P
1559993596.0,286046997.1,P
1559993615.8,286046997.8,Y
1559993635.6,286046998.3,P
1559993655.5,286046999.7,N
1559993675.3,286047000.5,N
1559993695.1,286047002.8,N
1559993715.9,286047000.2,N
1559993735.7,286047000.0,N
1559993755.6,286046998.1,N
1559993775.4,286047001.0,N
1559993795.2,286047000.1,N
1559993815.1,286047001.0,N
1559993816.0,286047001.0,N
1559993835.8,286046998.6,N
1559993855.6,286047000.0,N
1559993875.5,286047000.8,N
1559993895.3,286047002.4,N
1559993915.2,286047002.4,N
1559993935.9,286047001.5,N
1559993955.7,286047001.4,N
1559993975.6,286047001.3,N
1559993995.4,286047001.8,N
1559994015.2,286047002.5,N
1559994035.1,286047001.4,N
1559994036.0,286047001.4,N
1559994055.8,286047002.8,N
1559994075.7,286047002.4,N
1559994095.5,286046999.8,N
1559994115.3,286047002.0,N
1559994135.2,286047004.4,Y
1559994155.0,286047004.3,P
1559994155.9,286047004.3,N
1559994175.7,286047001.4,N
1559994195.6,286047002.0,N
1559994215.4,286047000.2,N
1559994235.3,286047000.2,N
1559994255.1,286046999.8,N
1559994275.8,286047000.0,N
1559994295.7,286047000.3,N
1559994315.5,286047001.6,N
1559994335.4,286047002.7,N
1559994355.2,286047002.5,N
1559994375.0,286047001.6,N
1559994375.9,286047001.6,N
1559994395.8,286047004.0,N
1559994415.6,286047003.7,N
1559994435.4,286047001.9,N
1559994455.3,286047001.5,N
1559994475.1,286046999.7,N
1559994495.9,286047002.3,N
1559994515.7,286047001.0,N
1559994535.5,286047000.8,N
1559994555.4,286047002.6,N
1559994575.2,286047002.3,N
1559994595.0,286047000.4,N
1559994595.9,286047000.4,N
1559994615.8,286047002.7,N
1559994635.6,286047000.0,N
1559994655.5,286046999.9,N
1559994675.3,286047000.8,N
1559994695.1,286047001.2,N
1559994715.9,286046999.9,N
1559994735.7,286047000.2,N
1559994755.6,286047000.3,N
1559994775.4,286047000.4,N
1559994795.2,286047001.5,N
1559994815.1,286047001.8,N
1559994816.0,286047001.8,N
1559994835.8,286047002.0,N
1559994855.6,286047003.6,Y
1559994875.5,286047002.8,P
1559994895.3,286046999.7,N
1559994915.2,286047000.2,N
1559994935.9,286046998.6,N
1559994955.7,286046998.7,N
1559994975.6,286046999.1,N
1559994995.4,286047000.9,N
1559995015.2,286047000.7,N
1559995035.1,286047000.9,N
1559995036.0,286047000.9,N
1559995055.8,286046996.5,N
1559995075.7,286046995.2,Y
1559995095.5,286046997.5,P
1559995115.3,286046995.8,P
1559995135.2,286046993.4,P
1559995155.0,286046994.6,N
1559995155.9,286046994.6,N
1559995175.8,286046994.1,N
1559995195.6,286046994.8,N
